Regional Weather Roundup
Issued by NWS Wakefield, VA

Home | Current Version | Previous Version | Text Only | Print | Product List | Glossary On
Versions: 1 2 3 4 5 6 7 8 9 10 11 12 13 14 15 16 17 18 19 20 21 22 23 24 25 26 27 28
000
ASUS41 KAKQ 031115
RWRAKQ

REGIONAL WEATHER ROUNDUP
NATIONAL WEATHER SERVICE WAKEFIELD VA
700 AM EDT TUE AUG 03 2021

Note: "fair" indicates few or no clouds below 12,000 feet with no
significant weather and/or obstructions to visibility. * = Denotes
station may not report precipitation (e.g., rain,snow,etc.),
thunder or fog.

VAZ042-051-052>054-056-031200-
NORTHERN VIRGINIA

CITY           SKY/WX    TMP DP  RH WIND       PRES   REMARKS
WASH NATIONAL  CLOUDY    68  62  81 N5        30.11S
DULLES         CLOUDY    63  59  87 NW5       30.11S
FORT BELVOIR   CLOUDY    63  61  96 CALM      30.10S
QUANTICO       CLOUDY    67  63  87 NW7       30.10S FOG
FREDERICKSBRG* CLOUDY    65  65  99 CALM      30.08S
STAFFORD*      CLOUDY    64  61  91 CALM      30.14S
WARRENTON      CLOUDY    62  59  91 CALM      30.11S
CULPEPER*      CLOUDY    62  60  94 N3        30.12S
MANASSAS*      CLOUDY    61  59  93 N5        30.11S
LEESBURG*      CLOUDY    57  55  94 CALM      30.13S
WINCHESTER     CLOUDY    57  54  88 CALM      30.11R
FRONT ROYAL*   FAIR      57  55  94 CALM      30.12R
LURAY*         PTSUNNY   61  59  94 CALM      30.13S
$$

VAZ048-049-060>072-079>083-031200-
CENTRAL AND SOUTH CENTRAL VIRGINIA

CITY           SKY/WX    TMP DP  RH WIND       PRES   REMARKS
RICHMOND       CLOUDY    67  64  90 NE7       30.08S
CHESTERFIELD*  FAIR      66  65  96 N3        30.09R
PETERSBURG*    CLOUDY    66  64  90 NE5       30.08R
HANOVER        CLOUDY    65  62  90 CALM      30.10R
TAPPAHANNOCK*  CLOUDY    64  64 100 CALM      30.09F FOG
QUINTON*       FAIR      65  64  98 CALM      30.08R
CHARLOTTSVILLE CLOUDY    65  58  78 CALM      30.11R
GORDONSVILLE*  FAIR      62  62 100 CALM      30.10S
ORANGE*        CLOUDY    61  59  94 CALM      30.11R
LOUISA*        CLOUDY    62  61  94 N5        30.15R
BUMPASS*       NOT AVBL
FARMVILLE*     NOT AVBL
CREWE*         FAIR      64  61  91 CALM      30.08S
FORT PICKETT*  FAIR      66  66 100 NE6       30.08R
CHASE CITY*    PTSUNNY   66  64  91 CALM      30.08R
CLARKSVILLE*   FAIR      68  68 100 CALM      30.07R
SOUTH HILL*    CLOUDY    65  63  93 CALM      30.12S
LAWRENCEVILLE* FAIR      66  64  94 CALM      30.07S
EMPORIA*       MOCLDY    65  64  95 CALM      30.08R
$$

VAZ088>098-031200-
SOUTHEAST VIRGINIA

CITY           SKY/WX    TMP DP  RH WIND       PRES   REMARKS
NORFOLK        CLOUDY    74  65  73 NE9       30.04S
VIRGINIA BEACH CLOUDY    77  63  61 E13       30.03S
NORFOLK NAVAL  CLOUDY    76  63  64 NE8       30.06S
WEST POINT*      N/A     65  64  94 CALM      30.08R
SALUDA*        FAIR      73  65  77 CALM      30.08S
NEWPORT NEWS   CLOUDY    69  67  93 NE5       30.06S
LANGLEY AFB    PTCLDY    74  68  80 E13       30.06S
FORT EUSTIS    CLOUDY    72  65  79 NE3       30.05S
WILLIAMSBURG*    N/A     70  68  94 CALM      30.08R
HR EXEC AP*    CLOUDY    71  66  84 VRB5      30.06R
FRANKLIN*      CLOUDY    68  67  98 CALM      30.06R
US460-WAKEFLD  CLOUDY    68  66  93 CALM      30.06R
$$

VAZ020-022-025-037-045-031200-
WEST CENTRAL AND SOUTHWEST VIRGINIA

CITY           SKY/WX    TMP DP  RH WIND       PRES   REMARKS
STAUNTON*      CLOUDY    61  58  89 CALM      30.15R
WAYNESBORO*    FAIR      62  59  88 CALM      30.14R
HOT SPRINGS VA NOT AVBL
LYNCHBURG      CLOUDY    67  61  81 N3        30.10S
DANVILLE       CLOUDY    68  62  81 NE3       30.07S
SOUTH BOSTON*  CLOUDY    65  63  90 CALM      30.08R
MARTINSVILLE   CLOUDY    65  63  94 NE3       30.11S
ROANOKE        CLOUDY    69  60  73 S3        30.13R
BLACKSBURG     CLOUDY    64  63  96 E5        30.16S
DUBLIN*        CLOUDY    61  59  92 CALM      30.15R
MARION*        CLOUDY    61  58  90 NE7       30.16S
HILLSVILLE*    CLOUDY    62  61  96 E3        30.13R
RICHLANDS*     CLOUDY    64  58  80 SE8G16    30.10S
WISE*          CLOUDY    63  54  72 CALM      30.11S
ABINGDON*      CLOUDY    66  56  69 E6        30.08S
$$

MDZ021>025-VAZ099-100-031200-
SOUTHERN MARYLAND AND THE DELMARVA PENINSULA

CITY           SKY/WX    TMP DP  RH WIND       PRES   REMARKS
PATUXENT RIVER CLOUDY    69  62  78 NE3       30.09S
BAY BRIDGE APT NOT AVBL
LEONARDTOWN    CLOUDY    63  63 100 CALM      30.11S
DOVER          CLOUDY    64  62  95 CALM      30.10R
GEORGETOWN     CLOUDY    66  63  90 CALM      30.11R
EASTON         CLEAR     64  64 100 CALM      30.14R
CAMBRIDGE      CLEAR     64  64 100 CALM      30.10S
SALISBURY      CLOUDY    65  63  93 CALM      30.11R
TANGIER        NOT AVBL
OCEAN CITY     CLOUDY    65  64  97 CALM      30.11R
WALLOPS ISLAND CLOUDY    67  64  90 N6        30.10R
ACCOMACK*      CLOUDY    66  65  95 NE5       30.09R
$$

NCZ012>017-030>032-031200-
NORTH CENTRAL AND EASTERN NORTH CAROLINA

CITY           SKY/WX    TMP DP  RH WIND       PRES   REMARKS
ROANOKE RAPIDS FAIR      64  64 100 NE5       30.06R
RALEIGH        CLOUDY    70  64  81 NE6       30.04R
ELIZABETH CITY CLOUDY    75  67  76 NE15      30.02S
AHOSKIE*       LGT RAIN  68  68 100 CALM      30.05R
EDENTON*       DRIZZLE   72  71  95 N8        30.03R
CURRITUCK*     CLOUDY    75  68  78 NE13      30.03S
KILL DEVIL HLS CLOUDY    75  68  79 E12G22    30.00R
MANTEO         CLOUDY    74  70  87 E17G24    30.01S
CAPE HATTERAS  MOCLDY    75  73  93 NE5       29.98R
TARBORO*       CLOUDY    70  67  90 N5        30.04R FOG
GOLDSBORO      MOCLDY    67  58  74 NE5       29.99R
WASHINGTON     CLOUDY    72  67  85 N9        30.03R
GREENVILLE     MOCLDY    70  68  94 NE5       30.04R
NEW BERN       MOCLDY    72  67  84 N10       30.01R
WILMINGTON     CLOUDY    74  72  93 NE12      29.97R FOG
$$

VAZ048-031200-
ELSEWHERE

CITY           SKY/WX    TMP DP  RH WIND       PRES   REMARKS
HARRISBURG PA  MOCLDY    61  56  83 CALM      30.13R
BALTIMORE      CLOUDY    65  59  81 VRB3      30.11R
ANNAPOLIS      CLOUDY    71  61  70 N6        30.10S
ANDREWS AFB    CLOUDY    64  61  88 CALM      30.09S
PHILADELPHIA   CLOUDY    66  56  70 N6        30.12S
GREENSBORO     LGT RAIN  68  63  84 NE8       30.05S
ROCKY MOUNT    MOCLDY    71  65  81 NE6       30.04R
$$

VAZ100-031200-
MARINE

STATION/POSITION TIME  TEMP    WIND        PRES    WAVE   SWELL
                       AIR SEA DIR/SP/G            HT/PER HT/PER
                 (UTC) (F)     (DEG/KT/KT) (MB)    (FT/S) (FT/S)
CAPE MAY NJ      1024   72 73  330/  3/  6 1019.1
LEWES DE         1024   68 75  260/  4/  4 1019.4
15NM E FENWICK I 1050   72 73  330/  4/  4 1019.4R   2/ 8   2/ 8
OCEAN-CITY-INLET 1024   70 73   CALM  /  1 1020.2
44089 WALLOPS IS 1026      74                N/A     2/ 8
WACHAPREAGUE VA  1030   74 79   70/  6/  8 1018.6R
THOMAS POINT MD  1100   72 79  330/  7/  7 1020.3R
GOOSES REEF MD   1054   73 79   80/  6/  8 1019.7F   0
COVE POINT MD    1024   74      30/  5/  6 1019.0
SOLOMONS ISLAND  1024   73 81   10/  5/  6 1018.9R
BISHOPS HEAD MD  1024   73 78   60/  5/  6 1019.1
PINEY POINT MD   1030           50/  5/  7   N/A
POTOMAC MD       1030   73     350/  6/  8 1019.3R   1
CAMBRIDGE MD     1024   70 81  160/  1/  2 1019.2
LEWISETTA VA     1030   73 81  290/  2/  3 1018.7R
RAPPAHANNOCK LGT 1030           70/  9/ 11 1019.1R
STINGRAY PT      1054   73 81   70/ 10/ 14 1019.6R   1/ 2
YORK RVR RNG VA  1030   76      90/ 13/ 14   N/A
YORKTOWN VA      1030   76 81   80/ 13/ 17 1017.6S
JAMESTOWN VA     1054   70      40/  6/  8 1018.8S
DOMINION TERM VA 1030   76      70/ 12/ 17 1017.7R
KIPTOPEKE VA     1030      77   70/  7/  9   N/A
CHES BAY BRIDGE  1030   75      70/ 11/ 15 1016.6S
CAPE HENRY VA    1030   75      60/ 14/ 17 1017.9R
WILLOUBY STN VA  1030   75      70/ 14/ 16 1017.6R
S CRANEY ISL VA  1030   75      70/ 10/ 12 1017.1S
CAPE HENRY BUOY  1056      75                N/A     3/ 3
64NM E OF VA BCH 1050   75      60/ 16/ 19 1016.4F   3/ 4   2/ 7
DUCK PIER NC     1030   77      70/ 21/ 25 1016.2R
44100 DUCK FRF   1026      80                N/A     4/ 5
44056 DUCK FRF   1056      78                N/A     4/ 5
OREGON INLET NC  1018   75 79   60/ 13/ 17 1015.4
HATTERAS NC      1030   76 80   50/  4/  5 1015.1R
DIAMOND SHLS NC  1050   79     120/  8/ 12 1014.4R
CAPE LOOKOUT NC  1000   78      20/  7/  7 1014.4R
$$



USA.gov is the U.S. government's official web portal to all federal, state and local government web resources and services.